| time (UTC) | temp C | wind direction | speed KPH | gust KPH | rain 1hr cm | rain 24hr cm | rain mn cm | humidity % | barometer mb |
| 20260506044521 | 21 | 192 | 9.7 | 24.1 | 0.00 | 0.00 | 0.00 | 49 | 1008.9 |
| 20260506043004 | 21 | 173 | 14.5 | 25.7 | 0.00 | 0.00 | 0.00 | 48 | 1009.0 |
| 20260506041507 | 21 | 200 | 9.7 | 19.3 | 0.00 | 0.00 | 0.00 | 47 | 1009.0 |
| 20260506040009 | 22 | 207 | 9.7 | 22.5 | 0.00 | 0.00 | 0.00 | 46 | 1009.1 |
| 20260506034522 | 22 | 155 | 8.0 | 17.7 | 0.00 | 0.00 | 0.00 | 45 | 1009.0 |
| 20260506033022 | 22 | 181 | 11.3 | 17.7 | 0.00 | 0.00 | 0.00 | 45 | 1008.9 |
| 20260506031504 | 22 | 191 | 9.7 | 19.3 | 0.00 | 0.00 | 0.00 | 44 | 1008.9 |
| 20260506030010 | 22 | 212 | 11.3 | 27.4 | 0.00 | 0.00 | 0.00 | 44 | 1008.9 |
| 20260506024513 | 22 | 196 | 11.3 | 17.7 | 0.00 | 0.00 | 0.00 | 43 | 1008.8 |
| 20260506023034 | 22 | 150 | 12.9 | 22.5 | 0.00 | 0.00 | 0.00 | 44 | 1009.0 |
| 20260506021533 | 22 | 177 | 6.4 | 11.3 | 0.00 | 0.00 | 0.00 | 44 | 1009.1 |
| 20260506020007 | 23 | 211 | 6.4 | 14.5 | 0.00 | 0.00 | 0.00 | 42 | 1008.9 |
| 20260506014513 | 23 | 184 | 12.9 | 16.1 | 0.00 | 0.00 | 0.00 | 42 | 1008.8 |
| 20260506013027 | 23 | 199 | 8.0 | 14.5 | 0.00 | 0.00 | 0.00 | 40 | 1008.7 |
| 20260506011524 | 23 | 195 | 8.0 | 12.9 | 0.00 | 0.00 | 0.00 | 40 | 1008.5 |
| 20260506010003 | 24 | 167 | 8.0 | 14.5 | 0.00 | 0.00 | 0.00 | 38 | 1008.2 |
| 20260506004511 | 24 | 208 | 8.0 | 19.3 | 0.00 | 0.00 | 0.00 | 38 | 1007.9 |
| 20260506003017 | 24 | 200 | 8.0 | 14.5 | 0.00 | 0.00 | 0.00 | 38 | 1008.0 |
| 20260506001503 | 24 | 187 | 8.0 | 16.1 | 0.00 | 0.00 | 0.00 | 38 | 1007.9 |
| 20260506000003 | 25 | 154 | 11.3 | 19.3 | 0.00 | 0.00 | 0.00 | 37 | 1007.7 |
| 20260505234507 | 25 | 212 | 8.0 | 16.1 | 0.00 | 0.00 | 0.00 | 38 | 1007.6 |
| 20260505233002 | 25 | 219 | 8.0 | 20.9 | 0.00 | 0.00 | 0.00 | 37 | 1007.5 |
| 20260505231503 | 25 | 192 | 8.0 | 16.1 | 0.00 | 0.00 | 0.00 | 37 | 1007.5 |
| 20260505230010 | 25 | 186 | 9.7 | 20.9 | 0.00 | 0.00 | 0.00 | 36 | 1007.4 |
| 20260505224505 | 25 | 192 | 6.4 | 17.7 | 0.00 | 0.00 | 0.00 | 36 | 1007.5 |
| 20260505223008 | 26 | 184 | 8.0 | 24.1 | 0.00 | 0.00 | 0.00 | 35 | 1007.3 |
| 20260505221503 | 26 | 191 | 8.0 | 20.9 | 0.00 | 0.00 | 0.00 | 35 | 1007.3 |
| 20260505220007 | 26 | 188 | 9.7 | 16.1 | 0.00 | 0.00 | 0.00 | 36 | 1007.2 |
| 20260505214504 | 26 | 214 | 11.3 | 17.7 | 0.00 | 0.00 | 0.00 | 36 | 1007.3 |
| 20260505213015 | 26 | 197 | 9.7 | 20.9 | 0.00 | 0.00 | 0.00 | 36 | 1007.1 |
| 20260505211514 | 26 | 168 | 11.3 | 22.5 | 0.00 | 0.00 | 0.00 | 37 | 1007.1 |
| 20260505210005 | 26 | 188 | 12.9 | 24.1 | 0.00 | 0.00 | 0.00 | 36 | 1007.1 |
| 20260505204504 | 26 | 206 | 8.0 | 22.5 | 0.00 | 0.00 | 0.00 | 36 | 1007.2 |
| 20260505203011 | 27 | 182 | 9.7 | 19.3 | 0.00 | 0.00 | 0.00 | 36 | 1007.1 |
| 20260505201521 | 26 | 192 | 6.4 | 17.7 | 0.00 | 0.00 | 0.00 | 37 | 1007.1 |
| 20260505200015 | 27 | 182 | 12.9 | 22.5 | 0.00 | 0.00 | 0.00 | 37 | 1007.1 |
| 20260505194504 | 27 | 206 | 8.0 | 17.7 | 0.00 | 0.00 | 0.00 | 37 | 1007.3 |
| 20260505193011 | 26 | 181 | 8.0 | 24.1 | 0.00 | 0.00 | 0.00 | 38 | 1007.4 |
| 20260505191511 | 26 | 184 | 11.3 | 22.5 | 0.00 | 0.00 | 0.00 | 38 | 1007.8 |
| 20260505190012 | 27 | 221 | 11.3 | 19.3 | 0.00 | 0.00 | 0.00 | 39 | 1007.7 |
| 20260505184520 | 27 | 220 | 11.3 | 24.1 | 0.00 | 0.00 | 0.00 | 39 | 1007.9 |
| 20260505183011 | 27 | 221 | 9.7 | 17.7 | 0.00 | 0.00 | 0.00 | 37 | 1008.1 |
| 20260505181504 | 27 | 190 | 9.7 | 22.5 | 0.00 | 0.00 | 0.00 | 35 | 1008.3 |
| 20260505180018 | 26 | 240 | 9.7 | 17.7 | 0.00 | 0.00 | 0.00 | 36 | 1008.3 |
| 20260505174527 | 26 | 205 | 11.3 | 22.5 | 0.00 | 0.00 | 0.00 | 35 | 1008.7 |
| 20260505173022 | 26 | 210 | 12.9 | 19.3 | 0.00 | 0.00 | 0.00 | 36 | 1008.7 |
| 20260505171506 | 26 | 231 | 11.3 | 19.3 | 0.00 | 0.00 | 0.00 | 36 | 1008.8 |
| 20260505170017 | 26 | 213 | 11.3 | 17.7 | 0.00 | 0.00 | 0.00 | 39 | 1009.0 |
| 20260505164511 | 26 | 211 | 9.7 | 22.5 | 0.00 | 0.00 | 0.00 | 41 | 1009.1 |
| 20260505163021 | 26 | 199 | 8.0 | 22.5 | 0.00 | 0.00 | 0.00 | 43 | 1009.5 |
| 20260505161524 | 26 | 203 | 8.0 | 16.1 | 0.00 | 0.00 | 0.00 | 46 | 1009.4 |
| 20260505153021 | 25 | 250 | 8.0 | 11.3 | 0.00 | 0.00 | 0.00 | 47 | 1009.6 |
| 20260505151520 | 24 | 179 | 4.8 | 11.3 | 0.00 | 0.00 | 0.00 | 48 | 1009.8 |
| 20260505124505 | 18 | 179 | 4.8 | 9.7 | 0.00 | 0.00 | 0.00 | 63 | 1011.0 |
| 20260505123009 | 17 | 198 | 3.2 | 8.0 | 0.00 | 0.00 | 0.00 | 65 | 1010.9 |
| 20260505121517 | 16 | 201 | 3.2 | 4.8 | 0.00 | 0.00 | 0.00 | 72 | 1010.8 |
| 20260505120003 | 13 | 194 | 0.0 | 3.2 | 0.00 | 0.00 | 0.00 | 88 | 1010.6 |
| 20260505114504 | 12 | 342 | 0.0 | 0.0 | 0.00 | 0.00 | 0.00 | 92 | 1010.7 |
| 20260505113016 | 11 | 342 | 0.0 | 3.2 | 0.00 | 0.00 | 0.00 | 92 | 1010.7 |
| 20260505111514 | 11 | 348 | 0.0 | 1.6 | 0.00 | 0.00 | 0.00 | 92 | 1010.6 |
| 20260505101517 | 10 | 348 | 0.0 | 3.2 | 0.00 | 0.00 | 0.00 | 90 | 1010.0 |
| 20260505100021 | 10 | 348 | 0.0 | 0.0 | 0.00 | 0.00 | 0.00 | 89 | 1010.0 |
| 20260505094527 | 11 | 348 | 0.0 | 3.2 | 0.00 | 0.00 | 0.00 | 89 | 1009.8 |
| 20260505093006 | 11 | 348 | 0.0 | 0.0 | 0.00 | 0.00 | 0.00 | 88 | 1009.8 |
| 20260505091508 | 11 | 348 | 0.0 | 0.0 | 0.00 | 0.00 | 0.00 | 87 | 1009.8 |
| 20260505090016 | 11 | 348 | 0.0 | 0.0 | 0.00 | 0.00 | 0.00 | 86 | 1009.8 |
| 20260505084520 | 12 | 348 | 0.0 | 0.0 | 0.00 | 0.00 | 0.00 | 83 | 1009.9 |
| 20260505083028 | 13 | 321 | 0.0 | 0.0 | 0.00 | 0.00 | 0.00 | 81 | 1009.7 |
| 20260505081510 | 14 | 321 | 0.0 | 0.0 | 0.00 | 0.00 | 0.00 | 77 | 1009.7 |
| 20260505080013 | 14 | 321 | 0.0 | 0.0 | 0.00 | 0.00 | 0.00 | 73 | 1009.6 |
| 20260505074520 | 13 | 321 | 0.0 | 3.2 | 0.00 | 0.00 | 0.00 | 73 | 1009.3 |
| 20260505073027 | 13 | 322 | 0.0 | 3.2 | 0.00 | 0.00 | 0.00 | 74 | 1009.3 |
| 20260505071525 | 13 | 322 | 0.0 | 3.2 | 0.00 | 0.00 | 0.00 | 74 | 1009.4 |
| 20260505070010 | 12 | 321 | 0.0 | 3.2 | 0.00 | 0.00 | 0.00 | 74 | 1009.8 |
| 20260505064513 | 13 | 330 | 0.0 | 3.2 | 0.00 | 0.00 | 0.00 | 72 | 1009.7 |
| 20260505063025 | 13 | 330 | 0.0 | 3.2 | 0.00 | 0.00 | 0.00 | 72 | 1009.7 |
| 20260505061523 | 13 | 257 | 0.0 | 3.2 | 0.00 | 0.00 | 0.00 | 70 | 1009.7 |
| 20260505060020 | 13 | 257 | 0.0 | 3.2 | 0.00 | 0.00 | 0.00 | 67 | 1009.8 |